Weather History for Palm Springs, CA

Change the Weather History Date:

Wednesday, May 7, 2014

  Actual Average Record
Temperature  
Mean Temperature 69 °F 77 °F  
Max Temperature 81 °F 91 °F 107 °F (1989)
Min Temperature 56 °F 63 °F 36 °F (1964)
Degree Days  
Heating Degree Days 0 0  
Month to date heating degree days 0 0  
Since 1 July heating degree days 431 872  
Cooling Degree Days 4 12  
Month to date cooling degree days 101 77  
Year to date cooling degree days 674 397  
Growing Degree Days 19 (Base 50)    
Moisture  
Dew Point 39 °F    
Average Humidity 38    
Maximum Humidity 55    
Minimum Humidity 21    
Precipitation  
Precipitation 0.00 in 0.01 in 1.11 in (1976)
Month to date precipitation 0.00 0.07  
Year to date precipitation 0.75 2.82  
Since 1 July precipitation 2.01 5.62  
Snow  
Snow 0.00 in - - ()
Month to date snowfall 0.0  
Year to date snowfall 0.0  
Since 1 July snowfall 0.0  
Snow Depth 0.00 in    
Sea Level Pressure  
Sea Level Pressure 29.81 in    
Wind  
Wind Speed 8 mph (WNW)    
Max Wind Speed 26 mph    
Max Gust Speed 34 mph    
Visibility 10 miles    
Events      
T = Trace of Precipitation, MM = Missing Value Source: NWS Daily Summary

Daily Weather History Graph

Daily Weather History Graph

Search for Another Location

Airport:

Trip Planner

Search our weather history database for the weather conditions in past years. The results will help you decide how hot, cold, wet, or windy it might be!

Date:

Astronomy

May. 07, 2014 Rise Set
Actual Time 5:51 AM PDT 7:34 PM PDT
Civil Twilight 5:24 AM PDT 8:01 PM PDT
Nautical Twilight 4:51 AM PDT 8:33 PM PDT
Astronomical Twilight 4:17 AM PDT 9:08 PM PDT
Moon 1:02 PM PDT (5/7) 1:33 AM PDT (5/7)
Length of Visible Light 14h 36m
Length of Day
13h 42m
First Quarter, 56% of the Moon is Illuminated
May 7
First Quarter
May 14
Full
May 21
Last Quarter
May 28
New
Jun 5
First Quarter

Hourly Weather History & Observations

Time (PDT) Temp. Dew Point Humidity Pressure Visibility Wind Dir Wind Speed Gust Speed Precip Events Conditions
12:53 AM 62.1 °F 37.9 °F 41% 29.76 in 10.0 mi East 3.5 mph - N/A   Partly Cloudy
1:53 AM 61.0 °F 39.0 °F 44% 29.76 in 10.0 mi SSW 3.5 mph - N/A   Clear
2:53 AM 60.1 °F 39.0 °F 46% 29.76 in 10.0 mi SSE 5.8 mph - N/A   Clear
3:53 AM 59.0 °F 39.9 °F 49% 29.76 in 10.0 mi WSW 4.6 mph - N/A   Clear
4:53 AM 57.9 °F 39.9 °F 51% 29.76 in 10.0 mi South 3.5 mph - N/A   Clear
5:53 AM 57.0 °F 41.0 °F 55% 29.78 in 10.0 mi SSE 3.5 mph - N/A   Clear
6:53 AM 59.0 °F 41.0 °F 51% 29.81 in 10.0 mi Calm Calm - N/A   Clear
7:53 AM 63.0 °F 39.0 °F 41% 29.82 in 10.0 mi South 3.5 mph - N/A   Clear
8:53 AM 66.0 °F 37.9 °F 36% 29.84 in 10.0 mi South 3.5 mph - N/A   Scattered Clouds
10:53 AM 75.0 °F 37.9 °F 26% 29.86 in 10.0 mi NW 9.2 mph 18.4 mph N/A   Clear
11:53 AM 77.0 °F 37.9 °F 24% 29.86 in 10.0 mi NW 16.1 mph 28.8 mph N/A   Scattered Clouds
12:53 PM 80.1 °F 37.9 °F 22% 29.84 in 10.0 mi NW 21.9 mph 29.9 mph N/A   Scattered Clouds
1:53 PM 80.1 °F 37.9 °F 22% 29.83 in 10.0 mi NW 17.3 mph 28.8 mph N/A   Scattered Clouds
2:53 PM 80.1 °F 37.0 °F 21% 29.83 in 10.0 mi WNW 11.5 mph - N/A   Clear
3:53 PM 81.0 °F 39.0 °F 22% 29.81 in 10.0 mi NW 20.7 mph 28.8 mph N/A   Clear
4:53 PM 80.1 °F 37.0 °F 21% 29.80 in 10.0 mi WNW 10.4 mph 25.3 mph N/A   Clear
5:53 PM 80.1 °F 36.0 °F 20% 29.80 in 10.0 mi NW 19.6 mph 27.6 mph N/A   Scattered Clouds
6:53 PM 75.9 °F 39.0 °F 26% 29.81 in 10.0 mi NW 23.0 mph 31.1 mph N/A   Clear
7:53 PM 73.9 °F 39.0 °F 28% 29.82 in 10.0 mi NW 18.4 mph 23.0 mph N/A   Clear
8:53 PM 73.0 °F 42.1 °F 33% 29.83 in 10.0 mi NNW 25.3 mph 29.9 mph N/A   Clear
9:53 PM 70.0 °F 44.1 °F 39% 29.86 in 10.0 mi NW 19.6 mph 31.1 mph N/A   Clear
10:53 PM 69.1 °F 44.1 °F 40% 29.87 in 10.0 mi NNW 18.4 mph 25.3 mph N/A   Clear
11:53 PM 66.9 °F 44.1 °F 44% 29.87 in 10.0 mi NW 16.1 mph 25.3 mph N/A   Clear